QPF
0.01 0.01 0.01 0.02 0.02 0.02 0.02 0.02 0.02 0.02 0.01 0.02 0.02 0.02 0.03 0.03 0.04 0.05 0.04 0.05 0.04 0.03 0.03 0.03 0.02 0.00 0.00 0.01 0.01 0.01 0.01 0.01 0.01 0.01 0.01 0.01 0.01 0.02 0.02 0.02 0.02 0.02 0.02 0.01
0.02 0.01 0.02 0.02 0.01 0.02 0.02 0.02 0.02 0.02 0.02 0.03 0.04 0.04 0.03 0.02 0.05 0.07 0.04 0.04 0.05 0.05 0.05 0.04 0.02 0.01 0.00 0.00 0.01 0.01 0.02 0.03 0.02 0.01 0.01 0.01 0.01 0.02 0.03 0.01 0.01 0.01 0.01 0.01
0.02 0.01 0.01 0.01 0.01 0.01 0.01 0.02 0.02 0.02 0.02 0.02 0.04 0.06 0.04 0.04 0.05 0.07 0.05 0.06 0.08 0.08 0.06 0.05 0.03 0.01 0.01 0.00 0.01 0.02 0.04 0.04 0.03 0.02 0.01 0.01 0.01 0.02 0.03 0.01 0.01 0.00 0.01 0.01
0.02 0.01 0.01 0.01 0.01 0.01 0.01 0.00 0.01 0.02 0.02 0.03 0.03 0.07 0.07 0.07 0.07 0.05 0.05 0.10 0.13 0.10 0.07 0.08 0.05 0.03 0.02 0.01 0.01 0.02 0.02 0.01 0.01 0.01 0.01 0.01 0.01 0.00 0.01 0.01 0.01 0.01 0.01 0.01
0.01 0.01 0.01 0.01 0.00 0.00 0.00 0.00 0.01 0.01 0.02 0.03 0.05 0.05 0.09 0.06 0.06 0.05 0.05 0.14 0.11 0.06 0.09 0.13 0.08 0.03 0.01 0.01 0.01 0.01 0.01 0.01 0.00 0.00 0.00 0.00 0.00 0.01 0.01 0.01 0.01 0.01 0.01 0.00
0.01 0.01 0.01 0.01 0.00 0.00 0.00 0.01 0.03 0.03 0.03 0.04 0.07 0.05 0.08 0.07 0.04 0.07 0.08 0.12 0.14 0.08 0.07 0.09 0.09 0.08 0.04 0.03 0.03 0.02 0.01 0.01 0.01 0.01 0.01 0.01 0.01 0.01 0.01 0.01 0.01 0.01 0.01 0.00
0.02 0.00 0.01 0.01 0.00 0.01 0.01 0.02 0.03 0.04 0.06 0.05 0.04 0.05 0.04 0.07 0.07 0.09 0.08 0.08 0.10 0.10 0.08 0.10 0.11 0.09 0.05 0.03 0.02 0.03 0.04 0.03 0.02 0.01 0.02 0.01 0.01 0.02 0.02 0.02 0.02 0.01 0.01 0.01
0.03 0.01 0.01 0.01 0.00 0.00 0.01 0.02 0.02 0.03 0.06 0.07 0.04 0.06 0.08 0.10 0.10 0.11 0.11 0.09 0.11 0.18 0.13 0.10 0.09 0.06 0.04 0.03 0.02 0.01 0.02 0.02 0.02 0.01 0.01 0.02 0.01 0.02 0.03 0.05 0.04 0.02 0.01 0.01
0.02 0.01 0.01 0.00 0.00 0.00 0.00 0.01 0.00 0.01 0.03 0.05 0.04 0.06 0.09 0.09 0.09 0.08 0.09 0.13 0.19 0.28 0.14 0.14 0.12 0.07 0.04 0.03 0.01 0.01 0.00 0.01 0.01 0.01 0.02 0.03 0.03 0.02 0.03 0.04 0.06 0.05 0.04 0.03
0.01 0.01 0.00 0.00 0.00 0.00 0.00 0.00 0.00 0.01 0.03 0.04 0.04 0.05 0.09 0.10 0.06 0.08 0.09 0.16 0.26 0.30 0.14 0.13 0.11 0.08 0.05 0.02 0.01 0.01 0.01 0.00 0.00 0.00 0.01 0.03 0.04 0.04 0.04 0.06 0.08 0.08 0.07 0.06
0.01 0.01 0.01 0.01 0.01 0.00 0.00 0.00 0.00 0.01 0.01 0.02 0.04 0.06 0.08 0.08 0.08 0.07 0.07 0.14 0.17 0.16 0.15 0.11 0.09 0.10 0.07 0.04 0.02 0.02 0.01 0.01 0.01 0.00 0.00 0.01 0.01 0.02 0.04 0.06 0.08 0.09 0.10 0.08
0.01 0.01 0.02 0.01 0.01 0.01 0.01 0.00 0.00 0.01 0.01 0.01 0.04 0.08 0.10 0.11 0.09 0.05 0.07 0.13 0.18 0.16 0.13 0.10 0.06 0.07 0.09 0.07 0.04 0.02 0.01 0.01 0.01 0.00 0.00 0.00 0.01 0.01 0.02 0.03 0.04 0.06 0.09 0.10
0.00 0.01 0.01 0.01 0.01 0.01 0.01 0.01 0.01 0.00 0.00 0.02 0.04 0.05 0.06 0.07 0.05 0.03 0.06 0.15 0.15 0.16 0.14 0.10 0.06 0.07 0.09 0.09 0.06 0.03 0.02 0.01 0.01 0.01 0.01 0.01 0.01 0.01 0.03 0.03 0.02 0.03 0.04 0.07
0.00 0.00 0.00 0.00 0.01 0.01 0.01 0.01 0.00 0.01 0.01 0.01 0.02 0.03 0.05 0.08 0.04 0.02 0.04 0.13 0.10 0.07 0.06 0.06 0.05 0.07 0.08 0.09 0.08 0.05 0.03 0.02 0.02 0.02 0.02 0.01 0.01 0.01 0.02 0.03 0.03 0.02 0.03 0.03
0.00 0.00 0.00 0.00 0.00 0.01 0.01 0.01 0.01 0.01 0.01 0.02 0.02 0.02 0.03 0.03 0.03 0.03 0.03 0.04 0.05 0.04 0.04 0.04 0.04 0.06 0.08 0.09 0.09 0.06 0.05 0.04 0.04 0.04 0.03 0.01 0.01 0.01 0.02 0.03 0.04 0.05 0.06 0.05
0.00 0.00 0.00 0.00 0.00 0.01 0.02 0.02 0.01 0.01 0.01 0.02 0.02 0.02 0.03 0.03 0.04 0.04 0.04 0.06 0.06 0.04 0.03 0.03 0.05 0.07 0.07 0.08 0.09 0.07 0.07 0.06 0.06 0.06 0.05 0.04 0.03 0.02 0.02 0.02 0.03 0.05 0.06 0.06
0.00 0.00 0.00 0.00 0.00 0.00 0.02 0.02 0.01 0.01 0.01 0.02 0.03 0.04 0.04 0.04 0.06 0.06 0.08 0.09 0.08 0.05 0.04 0.05 0.05 0.06 0.06 0.05 0.05 0.05 0.06 0.05 0.05 0.06 0.05 0.05 0.03 0.02 0.02 0.02 0.03 0.03 0.03 0.04
0.00 0.00 0.00 0.00 0.00 0.01 0.02 0.01 0.01 0.00 0.01 0.01 0.02 0.03 0.02 0.02 0.04 0.06 0.11 0.10 0.07 0.06 0.06 0.08 0.09 0.10 0.10 0.06 0.04 0.03 0.03 0.04 0.03 0.04 0.05 0.05 0.04 0.04 0.04 0.04 0.03 0.02 0.02 0.03
0.00 0.00 0.00 0.00 0.00 0.01 0.01 0.01 0.00 0.00 0.01 0.01 0.01 0.01 0.02 0.05 0.07 0.05 0.05 0.06 0.05 0.06 0.13 0.19 0.21 0.15 0.12 0.08 0.06 0.04 0.03 0.03 0.04 0.03 0.03 0.03 0.04 0.04 0.04 0.04 0.04 0.03 0.03 0.04
0.00 0.01 0.01 0.00 0.00 0.01 0.01 0.01 0.01 0.01 0.02 0.02 0.02 0.02 0.02 0.06 0.06 0.04 0.03 0.02 0.03 0.04 0.10 0.18 0.19 0.17 0.12 0.10 0.09 0.08 0.06 0.06 0.05 0.04 0.03 0.03 0.03 0.03 0.04 0.04 0.04 0.05 0.06 0.08
0.00 0.00 0.00 0.00 0.01 0.01 0.01 0.01 0.01 0.03 0.03 0.02 0.02 0.02 0.03 0.07 0.07 0.05 0.05 0.03 0.02 0.02 0.04 0.08 0.10 0.14 0.11 0.08 0.09 0.12 0.10 0.08 0.07 0.06 0.05 0.04 0.03 0.03 0.03 0.04 0.06 0.09 0.12 0.14
0.01 0.00 0.01 0.01 0.01 0.01 0.01 0.00 0.01 0.02 0.01 0.01 0.01 0.01 0.01 0.06 0.15 0.16 0.12 0.07 0.04 0.03 0.03 0.05 0.10 0.13 0.12 0.13 0.09 0.08 0.10 0.07 0.07 0.06 0.05 0.03 0.04 0.05 0.06 0.08 0.09 0.12 0.16 0.21
0.01 0.01 0.01 0.01 0.02 0.02 0.01 0.01 0.03 0.03 0.02 0.01 0.01 0.01 0.01 0.04 0.10 0.12 0.15 0.12 0.08 0.06 0.05 0.06 0.09 0.14 0.12 0.18 0.15 0.11 0.09 0.07 0.06 0.04 0.03 0.04 0.06 0.07 0.08 0.12 0.15 0.19 0.22 0.21
0.01 0.01 0.01 0.02 0.03 0.03 0.02 0.02 0.05 0.04 0.02 0.02 0.02 0.01 0.00 0.02 0.03 0.06 0.12 0.11 0.07 0.06 0.04 0.04 0.09 0.10 0.10 0.14 0.16 0.12 0.08 0.06 0.06 0.04 0.04 0.05 0.08 0.10 0.12 0.17 0.20 0.21 0.20 0.16
0.01 0.01 0.02 0.04 0.06 0.06 0.05 0.02 0.01 0.01 0.00 0.01 0.01 0.01 0.00 0.01 0.01 0.03 0.05 0.07 0.08 0.08 0.03 0.03 0.03 0.04 0.05 0.06 0.07 0.05 0.04 0.04 0.04 0.03 0.03 0.06 0.09 0.12 0.14 0.13 0.13 0.12 0.11 0.09
0.02 0.02 0.04 0.05 0.05 0.03 0.02 0.01 0.01 0.01 0.01 0.01 0.01 0.01 0.01 0.01 0.01 0.02 0.03 0.02 0.06 0.09 0.03 0.02 0.02 0.03 0.04 0.05 0.06 0.05 0.04 0.03 0.03 0.03 0.04 0.04 0.05 0.07 0.09 0.09 0.08 0.08 0.06 0.06
MSLP
1006.64 1007.45 1007.94 1008.14 1008.09 1007.92 1007.74 1007.67 1007.76 1008.03 1008.42 1008.87 1009.28 1009.58 1009.72 1009.70 1009.56 1009.37 1009.19 1009.09 1009.09 1009.17 1009.30 1009.42 1009.47 1009.41 1009.23 1008.96 1008.66 1008.38 1008.21 1008.17 1008.29 1008.53 1008.87 1009.23 1009.57 1009.84 1010.05 1010.21 1010.35 1010.54 1010.80 1011.16
1007.36 1007.95 1008.21 1008.20 1008.01 1007.78 1007.63 1007.65 1007.89 1008.30 1008.82 1009.35 1009.77 1010.03 1010.08 1009.94 1009.68 1009.41 1009.18 1009.08 1009.12 1009.28 1009.50 1009.70 1009.82 1009.81 1009.65 1009.40 1009.09 1008.82 1008.65 1008.63 1008.78 1009.06 1009.43 1009.81 1010.16 1010.43 1010.61 1010.74 1010.85 1011.00 1011.24 1011.58
1007.73 1008.09 1008.12 1007.92 1007.62 1007.38 1007.31 1007.48 1007.91 1008.52 1009.19 1009.81 1010.26 1010.47 1010.42 1010.15 1009.77 1009.39 1009.10 1008.98 1009.05 1009.27 1009.57 1009.86 1010.05 1010.09 1009.98 1009.73 1009.44 1009.17 1009.01 1009.02 1009.19 1009.51 1009.91 1010.33 1010.69 1010.97 1011.15 1011.26 1011.35 1011.48 1011.68 1012.00
1007.76 1007.88 1007.70 1007.37 1007.03 1006.85 1006.93 1007.31 1007.98 1008.81 1009.66 1010.39 1010.86 1011.01 1010.84 1010.42 1009.89 1009.37 1008.99 1008.83 1008.90 1009.16 1009.54 1009.91 1010.18 1010.29 1010.22 1010.02 1009.75 1009.51 1009.38 1009.40 1009.61 1009.96 1010.39 1010.83 1011.22 1011.50 1011.68 1011.77 1011.84 1011.93 1012.10 1012.37
1007.51 1007.41 1007.09 1006.69 1006.39 1006.33 1006.62 1007.27 1008.20 1009.27 1010.30 1011.12 1011.59 1011.67 1011.37 1010.78 1010.07 1009.39 1008.89 1008.65 1008.69 1008.98 1009.40 1009.84 1010.20 1010.39 1010.40 1010.27 1010.06 1009.86 1009.76 1009.83 1010.06 1010.43 1010.88 1011.33 1011.72 1012.01 1012.17 1012.24 1012.28 1012.33 1012.46 1012.69
1007.07 1006.81 1006.40 1006.02 1005.82 1005.96 1006.50 1007.42 1008.62 1009.91 1011.08 1011.97 1012.42 1012.40 1011.95 1011.17 1010.27 1009.42 1008.78 1008.45 1008.44 1008.72 1009.18 1009.69 1010.13 1010.41 1010.52 1010.47 1010.33 1010.20 1010.16 1010.26 1010.51 1010.90 1011.35 1011.80 1012.18 1012.45 1012.59 1012.64 1012.65 1012.67 1012.75 1012.93
1006.57 1006.21 1005.79 1005.47 1005.44 1005.79 1006.59 1007.77 1009.19 1010.64 1011.92 1012.81 1013.21 1013.07 1012.45 1011.49 1010.41 1009.40 1008.63 1008.21 1008.15 1008.42 1008.90 1009.46 1009.98 1010.35 1010.55 1010.60 1010.55 1010.50 1010.51 1010.65 1010.92 1011.31 1011.76 1012.19 1012.56 1012.80 1012.93 1012.96 1012.94 1012.93 1012.98 1013.12
1006.09 1005.70 1005.32 1005.13 1005.27 1005.84 1006.85 1008.22 1009.79 1011.33 1012.62 1013.46 1013.76 1013.49 1012.72 1011.61 1010.39 1009.26 1008.40 1007.91 1007.82 1008.08 1008.59 1009.19 1009.77 1010.22 1010.52 1010.66 1010.70 1010.71 1010.78 1010.95 1011.24 1011.63 1012.06 1012.48 1012.82 1013.05 1013.16 1013.18 1013.15 1013.13 1013.15 1013.26
1005.67 1005.31 1005.03 1004.99 1005.30 1006.04 1007.20 1008.67 1010.27 1011.79 1013.00 1013.74 1013.91 1013.50 1012.61 1011.40 1010.11 1008.93 1008.04 1007.54 1007.46 1007.73 1008.26 1008.90 1009.53 1010.05 1010.42 1010.63 1010.75 1010.83 1010.95 1011.15 1011.45 1011.83 1012.25 1012.65 1012.97 1013.20 1013.31 1013.33 1013.30 1013.28 1013.30 1013.39
1005.32 1005.05 1004.90 1005.01 1005.46 1006.31 1007.51 1008.97 1010.49 1011.88 1012.93 1013.50 1013.52 1012.99 1012.03 1010.80 1009.52 1008.38 1007.55 1007.11 1007.07 1007.39 1007.95 1008.62 1009.29 1009.85 1010.27 1010.54 1010.72 1010.85 1011.01 1011.24 1011.56 1011.93 1012.34 1012.72 1013.04 1013.27 1013.39 1013.43 1013.43 1013.42 1013.45 1013.53
1005.01 1004.88 1004.88 1005.12 1005.66 1006.54 1007.69 1009.02 1010.36 1011.52 1012.34 1012.71 1012.57 1011.96 1010.99 1009.81 1008.63 1007.63 1006.93 1006.61 1006.67 1007.05 1007.66 1008.36 1009.04 1009.62 1010.07 1010.38 1010.61 1010.79 1010.99 1011.25 1011.58 1011.96 1012.36 1012.74 1013.06 1013.30 1013.45 1013.52 1013.54 1013.56 1013.60 1013.68
1004.72 1004.75 1004.90 1005.25 1005.83 1006.67 1007.69 1008.81 1009.88 1010.75 1011.31 1011.46 1011.18 1010.53 1009.60 1008.55 1007.55 1006.75 1006.24 1006.09 1006.27 1006.73 1007.37 1008.09 1008.77 1009.35 1009.81 1010.16 1010.42 1010.65 1010.89 1011.19 1011.54 1011.93 1012.34 1012.73 1013.06 1013.32 1013.49 1013.60 1013.66 1013.71 1013.77 1013.86
1004.47 1004.66 1004.95 1005.37 1005.95 1006.69 1007.52 1008.37 1009.13 1009.70 1009.97 1009.92 1009.54 1008.88 1008.05 1007.18 1006.41 1005.84 1005.56 1005.58 1005.89 1006.42 1007.08 1007.79 1008.45 1009.02 1009.48 1009.84 1010.14 1010.42 1010.72 1011.07 1011.46 1011.88 1012.31 1012.71 1013.06 1013.33 1013.53 1013.67 1013.77 1013.85 1013.94 1014.03
1004.29 1004.64 1005.03 1005.50 1006.03 1006.63 1007.25 1007.82 1008.26 1008.52 1008.55 1008.32 1007.87 1007.26 1006.56 1005.89 1005.36 1005.03 1004.96 1005.14 1005.54 1006.10 1006.75 1007.42 1008.03 1008.57 1009.02 1009.41 1009.75 1010.10 1010.47 1010.88 1011.33 1011.80 1012.26 1012.68 1013.04 1013.33 1013.55 1013.72 1013.85 1013.97 1014.08 1014.19
1004.27 1004.73 1005.19 1005.66 1006.13 1006.57 1006.97 1007.27 1007.43 1007.43 1007.25 1006.90 1006.42 1005.87 1005.32 1004.86 1004.54 1004.42 1004.50 1004.78 1005.22 1005.77 1006.37 1006.95 1007.50 1007.99 1008.42 1008.83 1009.23 1009.66 1010.12 1010.62 1011.14 1011.66 1012.16 1012.61 1013.00 1013.30 1013.55 1013.74 1013.90 1014.05 1014.19 1014.33
1004.48 1005.00 1005.49 1005.93 1006.30 1006.59 1006.78 1006.84 1006.77 1006.57 1006.25 1005.83 1005.36 1004.90 1004.49 1004.19 1004.05 1004.06 1004.24 1004.56 1004.97 1005.44 1005.93 1006.40 1006.85 1007.27 1007.69 1008.12 1008.59 1009.10 1009.66 1010.26 1010.87 1011.47 1012.02 1012.50 1012.91 1013.23 1013.50 1013.71 1013.90 1014.09 1014.26 1014.44
1004.98 1005.51 1005.96 1006.33 1006.60 1006.74 1006.75 1006.64 1006.40 1006.06 1005.66 1005.22 1004.79 1004.42 1004.13 1003.97 1003.93 1004.02 1004.21 1004.48 1004.80 1005.13 1005.47 1005.80 1006.13 1006.48 1006.87 1007.32 1007.85 1008.45 1009.12 1009.82 1010.53 1011.20 1011.81 1012.33 1012.77 1013.12 1013.41 1013.65 1013.87 1014.09 1014.31 1014.53
1005.79 1006.25 1006.63 1006.91 1007.05 1007.06 1006.94 1006.69 1006.35 1005.94 1005.51 1005.09 1004.73 1004.44 1004.25 1004.17 1004.19 1004.28 1004.42 1004.59 1004.75 1004.91 1005.07 1005.23 1005.43 1005.69 1006.04 1006.51 1007.09 1007.77 1008.53 1009.33 1010.12 1010.87 1011.53 1012.10 1012.57 1012.96 1013.28 1013.56 1013.82 1014.08 1014.35 1014.61
1006.83 1007.19 1007.46 1007.62 1007.64 1007.54 1007.31 1006.99 1006.59 1006.17 1005.76 1005.40 1005.10 1004.90 1004.79 1004.75 1004.77 1004.82 1004.86 1004.89 1004.88 1004.85 1004.81 1004.81 1004.87 1005.04 1005.34 1005.80 1006.41 1007.14 1007.96 1008.83 1009.68 1010.48 1011.20 1011.82 1012.33 1012.76 1013.13 1013.46 1013.77 1014.08 1014.40 1014.71
1008.00 1008.23 1008.38 1008.41 1008.33 1008.13 1007.83 1007.47 1007.07 1006.67 1006.31 1006.01 1005.80 1005.67 1005.61 1005.59 1005.59 1005.57 1005.51 1005.39 1005.21 1005.01 1004.80 1004.64 1004.57 1004.64 1004.88 1005.30 1005.90 1006.63 1007.47 1008.36 1009.24 1010.07 1010.83 1011.48 1012.05 1012.53 1012.96 1013.35 1013.72 1014.09 1014.46 1014.81
1009.14 1009.25 1009.27 1009.20 1009.03 1008.77 1008.44 1008.06 1007.68 1007.33 1007.04 1006.82 1006.68 1006.61 1006.59 1006.58 1006.55 1006.47 1006.31 1006.08 1005.77 1005.42 1005.08 1004.79 1004.61 1004.59 1004.75 1005.10 1005.64 1006.33 1007.12 1007.98 1008.84 1009.66 1010.42 1011.10 1011.71 1012.25 1012.74 1013.21 1013.66 1014.09 1014.51 1014.90
1010.13 1010.14 1010.07 1009.92 1009.69 1009.39 1009.05 1008.70 1008.36 1008.07 1007.85 1007.70 1007.62 1007.60 1007.61 1007.61 1007.56 1007.44 1007.23 1006.92 1006.53 1006.10 1005.67 1005.30 1005.03 1004.92 1004.98 1005.24 1005.66 1006.25 1006.94 1007.70 1008.48 1009.24 1009.97 1010.66 1011.29 1011.89 1012.46 1013.00 1013.53 1014.04 1014.51 1014.94
1010.86 1010.81 1010.69 1010.50 1010.25 1009.95 1009.63 1009.32 1009.03 1008.80 1008.64 1008.55 1008.52 1008.54 1008.57 1008.58 1008.54 1008.41 1008.18 1007.85 1007.45 1006.99 1006.53 1006.12 1005.80 1005.60 1005.56 1005.69 1005.97 1006.39 1006.91 1007.51 1008.16 1008.82 1009.48 1010.14 1010.79 1011.43 1012.06 1012.69 1013.30 1013.88 1014.42 1014.89
1011.32 1011.25 1011.12 1010.93 1010.69 1010.43 1010.15 1009.88 1009.65 1009.48 1009.37 1009.32 1009.33 1009.37 1009.42 1009.44 1009.41 1009.30 1009.10 1008.81 1008.44 1008.02 1007.58 1007.17 1006.82 1006.56 1006.41 1006.39 1006.49 1006.70 1007.01 1007.41 1007.86 1008.37 1008.93 1009.52 1010.16 1010.83 1011.52 1012.22 1012.92 1013.58 1014.18 1014.70
1011.52 1011.47 1011.37 1011.22 1011.03 1010.81 1010.59 1010.38 1010.21 1010.08 1010.00 1009.98 1010.00 1010.05 1010.10 1010.14 1010.14 1010.07 1009.93 1009.71 1009.42 1009.07 1008.70 1008.32 1007.96 1007.65 1007.40 1007.23 1007.13 1007.12 1007.19 1007.34 1007.58 1007.90 1008.31 1008.81 1009.41 1010.08 1010.81 1011.58 1012.35 1013.09 1013.76 1014.35
1011.56 1011.55 1011.50 1011.40 1011.28 1011.13 1010.97 1010.83 1010.70 1010.60 1010.54 1010.52 1010.54 1010.58 1010.63 1010.68 1010.70 1010.67 1010.60 1010.47 1010.28 1010.03 1009.74 1009.42 1009.08 1008.74 1008.40 1008.08 1007.80 1007.56 1007.38 1007.28 1007.29 1007.40 1007.65 1008.03 1008.56 1009.20 1009.95 1010.76 1011.60 1012.41 1013.16 1013.82
Thickness
5832 5814 5803 5812 5820 5818 5815 5809 5804 5814 5832 5823 5814 5812 5818 5823 5822 5817 5816 5814 5814 5814 5817 5817 5817 5817 5814 5810 5807 5805 5802 5800 5798 5795 5792 5788 5786 5785 5785 5784 5783 5782 5780 5778
5811 5805 5825 5836 5835 5827 5819 5807 5805 5815 5828 5819 5807 5807 5818 5822 5821 5820 5818 5815 5814 5813 5813 5813 5813 5814 5812 5809 5807 5805 5802 5800 5798 5796 5793 5790 5787 5784 5783 5782 5780 5779 5778 5776
5803 5818 5838 5834 5827 5821 5817 5811 5810 5810 5818 5818 5806 5795 5805 5817 5824 5824 5823 5820 5817 5814 5811 5811 5811 5810 5810 5808 5806 5805 5802 5799 5797 5795 5792 5789 5785 5782 5779 5777 5776 5775 5775 5773
5813 5831 5833 5827 5825 5825 5810 5831 5828 5820 5803 5788 5797 5769 5792 5804 5809 5815 5816 5815 5815 5816 5814 5814 5812 5810 5809 5808 5807 5804 5801 5798 5796 5793 5789 5784 5779 5774 5773 5773 5772 5772 5771 5770
5810 5827 5826 5822 5830 5834 5826 5841 5831 5820 5802 5787 5787 5772 5779 5798 5798 5807 5813 5815 5816 5817 5816 5815 5814 5812 5810 5808 5805 5802 5799 5796 5794 5791 5787 5783 5778 5775 5773 5771 5769 5767 5767 5766
5821 5838 5837 5835 5846 5846 5841 5830 5819 5805 5788 5766 5778 5770 5771 5787 5798 5806 5813 5816 5816 5818 5817 5815 5813 5811 5808 5806 5803 5800 5796 5793 5791 5788 5785 5781 5776 5773 5769 5766 5764 5762 5762 5761
5807 5825 5840 5846 5832 5836 5829 5799 5771 5766 5754 5758 5778 5771 5774 5801 5812 5812 5811 5814 5816 5817 5814 5810 5807 5805 5805 5803 5800 5797 5793 5789 5787 5785 5782 5779 5776 5772 5767 5764 5761 5759 5757 5756
5784 5792 5826 5839 5830 5820 5819 5801 5767 5753 5746 5754 5770 5764 5782 5810 5817 5819 5820 5818 5816 5815 5814 5811 5808 5806 5805 5802 5799 5795 5790 5786 5784 5782 5779 5776 5774 5770 5766 5763 5760 5757 5755 5754
5784 5792 5832 5843 5846 5834 5815 5804 5802 5774 5763 5750 5758 5772 5789 5808 5810 5813 5815 5813 5812 5812 5813 5811 5808 5806 5803 5800 5797 5793 5788 5784 5782 5779 5776 5772 5770 5767 5764 5761 5758 5755 5753 5752
5803 5791 5815 5834 5840 5837 5828 5816 5791 5771 5750 5741 5752 5761 5767 5786 5794 5804 5806 5806 5808 5811 5809 5808 5806 5804 5802 5799 5795 5792 5788 5783 5780 5778 5774 5771 5767 5764 5761 5758 5754 5752 5749 5748
5807 5787 5795 5810 5810 5809 5814 5807 5791 5772 5765 5744 5735 5753 5795 5794 5797 5801 5804 5806 5807 5807 5807 5805 5803 5801 5799 5796 5792 5788 5784 5780 5777 5774 5770 5767 5763 5760 5757 5754 5751 5749 5746 5743
5805 5783 5773 5792 5818 5826 5817 5806 5789 5768 5762 5755 5745 5757 5805 5804 5804 5803 5803 5804 5804 5804 5803 5801 5799 5796 5794 5790 5788 5784 5781 5777 5774 5771 5767 5763 5759 5756 5753 5750 5748 5745 5742 5739
5801 5776 5757 5766 5785 5806 5805 5805 5797 5782 5764 5750 5744 5759 5800 5800 5800 5801 5801 5800 5800 5798 5796 5795 5793 5791 5789 5786 5783 5781 5778 5775 5771 5767 5762 5758 5755 5752 5749 5746 5743 5740 5737 5734
5808 5774 5762 5755 5766 5784 5789 5797 5798 5781 5758 5754 5758 5766 5782 5789 5791 5794 5796 5796 5795 5793 5791 5789 5787 5785 5784 5782 5779 5777 5774 5771 5767 5762 5758 5753 5750 5748 5745 5742 5739 5736 5733 5729
5796 5772 5777 5780 5789 5792 5791 5792 5794 5786 5776 5764 5767 5770 5778 5785 5790 5792 5793 5792 5789 5787 5785 5784 5782 5780 5778 5776 5773 5771 5769 5766 5762 5757 5753 5750 5747 5745 5741 5738 5734 5731 5727 5724
5781 5772 5774 5774 5786 5787 5783 5788 5789 5789 5785 5777 5773 5770 5786 5790 5790 5788 5786 5785 5780 5779 5779 5778 5776 5774 5772 5770 5767 5764 5762 5759 5757 5752 5748 5745 5742 5739 5736 5733 5729 5725 5721 5718
5768 5764 5754 5751 5770 5772 5759 5776 5780 5780 5782 5778 5767 5772 5782 5780 5780 5779 5780 5780 5776 5775 5774 5772 5771 5769 5767 5765 5763 5759 5757 5755 5751 5747 5743 5739 5736 5733 5731 5728 5723 5719 5715 5712
5763 5752 5741 5740 5749 5734 5754 5784 5786 5778 5775 5779 5778 5778 5779 5778 5777 5778 5780 5776 5772 5771 5770 5769 5766 5763 5762 5761 5759 5755 5753 5750 5746 5741 5738 5735 5731 5727 5724 5720 5716 5713 5709 5705
5766 5752 5736 5727 5725 5736 5758 5775 5778 5767 5758 5773 5773 5774 5774 5774 5770 5766 5772 5773 5771 5769 5768 5766 5764 5760 5755 5753 5752 5749 5745 5742 5739 5735 5731 5729 5725 5721 5717 5713 5710 5707 5703 5699
5758 5751 5734 5724 5722 5719 5745 5773 5784 5770 5744 5766 5770 5767 5766 5765 5747 5749 5763 5766 5765 5764 5762 5759 5755 5752 5748 5746 5745 5741 5736 5733 5730 5728 5726 5723 5719 5715 5711 5708 5704 5701 5697 5693
5731 5729 5724 5717 5714 5725 5754 5772 5773 5739 5737 5761 5764 5762 5761 5755 5752 5754 5758 5757 5757 5755 5754 5752 5748 5743 5740 5739 5736 5731 5727 5724 5723 5722 5719 5715 5712 5708 5705 5701 5697 5692 5688 5684
5716 5712 5711 5709 5705 5715 5756 5760 5747 5743 5756 5759 5759 5758 5755 5754 5753 5751 5750 5747 5746 5745 5744 5742 5737 5734 5733 5730 5726 5720 5717 5717 5715 5713 5709 5706 5703 5701 5697 5692 5688 5684 5680 5675
5713 5714 5711 5711 5715 5736 5750 5751 5754 5755 5752 5753 5752 5752 5752 5747 5743 5741 5739 5737 5736 5735 5733 5731 5728 5725 5722 5721 5717 5711 5709 5707 5705 5702 5698 5695 5693 5690 5688 5684 5680 5675 5672 5667
5712 5718 5712 5710 5719 5731 5740 5746 5749 5750 5749 5749 5749 5747 5744 5738 5735 5732 5730 5727 5726 5725 5724 5721 5718 5714 5711 5710 5707 5704 5702 5699 5695 5691 5687 5685 5682 5679 5677 5674 5671 5667 5663 5659
5703 5707 5702 5702 5712 5721 5728 5734 5738 5740 5742 5741 5740 5740 5736 5731 5726 5724 5720 5717 5716 5715 5713 5711 5708 5705 5702 5700 5698 5695 5692 5689 5685 5681 5678 5675 5672 5669 5666 5663 5661 5658 5656 5654
5697 5697 5694 5693 5705 5707 5713 5724 5730 5729 5729 5729 5728 5726 5726 5723 5718 5715 5711 5709 5707 5704 5702 5699 5697 5694 5692 5690 5687 5685 5684 5681 5676 5672 5668 5666 5663 5660 5657 5654 5651 5650 5649 5647